[[{"header":{"parameterUnit":"m.s-1","parameterCategory":1,"la1":30.2991,"la2":30.254,"lo1":-89.0895,"lo2":-89.0444,"dy":0.0017,"dx":0.0017,"nx":28,"ny":28,"refTime":"2025-08-20T21:00:00:Z","depth":0,"parameterNumber":2,"parameterNumberName":"U-component_of_WINDS"},"data":[0,0,0,0,0,0,0,0,0,0,0,0,0,0,0,0,0,0,0,0,0,0,0,0,0,0,0,0,0,0,0,0,0,0,0,0,0,0,0,0,0,0,0,0,0,0,0,0,0,0,0,0,0,0,0,0,0,0,-3.2182,-3.2181,0,-3.2086,-3.2084,-3.2083,-3.199,-3.1989,-3.1987,-3.1986,-3.1885,-3.1884,-3.1882,0,0,0,0,0,0,0,0,0,0,0,0,0,-3.2285,-3.2284,-3.2182,-3.2181,-3.218,-3.2086,-3.2084,-3.2083,-3.199,-3.1989,-3.1987,-3.1986,-3.1886,-3.1884,-3.1882,0,0,0,0,0,0,0,0,0,0,0,0,0,-3.222,-3.2283,-3.2182,-3.2122,-3.2116,-3.2086,-3.2084,-3.2083,-3.199,-3.1989,-3.1987,-3.1985,-3.1886,-3.1884,-3.1882,-3.1903,0,0,-3.1875,-3.1873,0,0,0,0,0,0,0,0,-3.2223,-3.2216,-3.2132,-3.2126,-3.2119,-3.2048,-3.2083,-3.2022,-3.1991,-3.2038,-3.1986,-3.1984,-3.1941,-3.1934,-3.1919,-3.1898,-3.1894,-3.1874,-3.1873,-3.1872,-3.1871,0,0,0,0,0,0,0,-3.2228,-3.2219,-3.2144,-3.2131,-3.2123,-3.2099,-3.2088,-3.2071,-3.2,-3.2034,-3.2027,-3.2017,-3.1937,-3.1922,-3.1916,-3.1893,-3.1874,-3.1872,-3.1871,-3.187,-3.1886,-3.1887,0,0,0,0,0,0,-3.2242,-3.2224,-3.2147,-3.2141,-3.2168,-3.2099,-3.2086,-3.2072,-3.2,-3.1988,-3.2018,-3.2013,-3.1927,-3.1919,-3.1913,-3.1933,-3.1872,-3.187,-3.1868,-3.1884,-3.1886,-3.1888,0,0,0,0,0,0,-3.2245,-3.2236,-3.2151,-3.218,-3.2168,-3.2099,-3.2084,-3.2072,-3.2057,-3.1989,-3.1975,-3.2016,-3.1925,-3.1916,-3.1907,-3.1928,-3.1869,-3.1866,-3.1882,-3.1885,-3.1887,-3.1974,0,0,0,0,0,0,-3.2248,-3.2237,-3.2245,-3.2181,-3.2167,-3.2147,-3.2086,-3.2071,-3.2053,-3.2045,-3.1983,-3.1971,-3.1923,-3.1911,-3.1904,-3.1924,-3.1865,-3.1879,-3.1883,-3.1886,-3.1969,-3.198,-3.1989,0,0,0,0,0,-3.2252,-3.2272,-3.2246,-3.2237,-3.2175,-3.2148,-3.214,-3.2084,-3.2055,-3.2062,-3.2019,-3.1973,-3.1928,-3.1911,-3.1902,-3.1922,-3.1878,-3.1882,-3.1886,-3.1965,-3.1978,-3.1989,0,0,0,0,0,0,-3.2338,-3.2263,-3.2232,-3.2233,-3.2198,-3.2132,-3.2139,-3.2099,-3.2071,-3.2064,-3.1996,-3.1983,-3.1982,-3.1951,-3.1933,-3.1939,-3.1896,-3.1899,-3.1959,-3.1971,-3.198,-3.1987,-3.1863,0,0,0,0,0,-3.2358,-3.2344,-3.2278,-3.2285,-3.2269,-3.2208,-3.2194,-3.2155,-3.2115,-3.2099,-3.2055,-3.2018,-3.1996,-3.1982,-3.1957,-3.1965,-3.1951,-3.1975,-3.1985,-3.1993,-3.1996,-3.1998,-3.2008,-3.1902,-3.1902,-3.1901,0,0,-3.2397,-3.2354,-3.2349,-3.2302,-3.2269,-3.2256,-3.2196,-3.2183,-3.2172,-3.2097,-3.2086,-3.2053,-3.2007,-3.2007,-3.2005,-3.1981,-3.2022,-3.1998,-3.2006,-3.2003,-3.2004,-3.2014,-3.2023,-3.1904,-3.1904,-3.1903,0,0,-3.2462,-3.2428,-3.2431,-3.2401,-3.2354,-3.2313,-3.2315,-3.2256,-3.2231,-3.2219,-3.2163,-3.2149,-3.2111,-3.2081,-3.2061,-3.2118,-3.2075,-3.2112,-3.2162,-3.2166,-3.2174,-3.2182,-3.2201,-3.2209,-3.2115,-3.2116,-3.2116,0,-3.2516,-3.2494,-3.2437,-3.2428,-3.2409,-3.2343,-3.2345,-3.2319,-3.2266,-3.2254,-3.2229,-3.2182,-3.2146,-3.2138,-3.2153,-3.2139,-3.2138,-3.2118,-3.2178,-3.2185,-3.219,-3.2208,-3.2216,-3.212,-3.212,-3.2119,-3.2119,0,-3.2563,-3.2548,-3.2556,-3.2508,-3.249,-3.2487,-3.243,-3.2419,-3.2382,-3.2345,-3.2334,-3.229,-3.2255,-3.2251,-3.2214,-3.2239,-3.2226,-3.2191,-3.2146,-3.2206,-3.2222,-3.2229,-3.2127,-3.2125,-3.2124,-3.2123,0,0,-3.2675,-3.2599,-3.2603,-3.2581,-3.2526,-3.2513,-3.2508,-3.2476,-3.2468,-3.2435,-3.2428,-3.2399,-3.2367,-3.2345,-3.2304,-3.2308,-3.2356,-3.2272,-3.227,-3.2289,-3.238,-3.2406,-3.2415,-3.2329,-3.233,-3.2331,-3.2384,0,-3.273,-3.2716,-3.2666,-3.2668,-3.2654,-3.2593,-3.2588,-3.2554,-3.252,-3.2503,-3.2465,-3.2445,-3.2404,-3.239,-3.2391,-3.235,-3.2373,-3.2346,-3.2321,-3.2321,-3.2333,-3.2423,-3.245,-3.2502,-3.239,-3.2391,-3.2392,0,-3.279,-3.2763,-3.2763,-3.2711,-3.2703,-3.27,-3.2667,-3.2652,-3.2613,-3.2588,-3.2564,-3.252,-3.2512,-3.2472,-3.2459,-3.2442,-3.2429,-3.2408,-3.2409,-3.2402,-3.2358,-3.2418,-3.2517,-3.2524,-3.2401,-3.24,-3.2399,0,-3.2871,-3.2835,-3.2831,-3.2814,-3.2753,-3.2752,-3.2726,-3.2686,-3.267,-3.2642,-3.2631,-3.2602,-3.2586,-3.2565,-3.2514,-3.249,-3.2507,-3.2463,-3.2486,-3.2487,-3.249,-3.249,-3.2586,-3.2485,-3.2485,-3.2485,-3.2485,0,-3.2936,-3.2938,-3.2867,-3.2864,-3.2865,-3.2809,-3.2812,-3.278,-3.2745,-3.2735,-3.2681,-3.2673,-3.2608,-3.2592,-3.2553,-3.2549,-3.2542,-3.2521,-3.251,-3.2525,-3.2527,-3.2514,-3.2508,-3.2487,-3.2486,-3.2486,-3.2486,0,-3.3025,-3.2978,-3.2969,-3.2913,-3.2899,-3.2903,-3.2854,-3.2849,-3.2813,-3.2802,-3.2796,-3.2739,-3.2718,-3.2667,-3.2632,-3.2606,-3.2611,-3.2593,-3.2625,-3.2617,-3.2642,-3.264,-3.2732,-3.2741,-3.2636,-3.2637,-3.2638,0,-3.3069,-3.3069,-3.3015,-3.3005,-3.2982,-3.2966,-3.2951,-3.2896,-3.2882,-3.2839,-3.284,-3.2816,-3.2792,-3.2763,-3.2718,-3.2691,-3.2671,-3.2705,-3.2666,-3.2681,-3.267,-3.267,-3.267,-3.2713,-3.2714,-3.2715,-3.2716,0,-3.315,-3.3128,-3.3107,-3.308,-3.3064,-3.3039,-3.3012,-3.3007,-3.2945,-3.2933,-3.2912,-3.2894,-3.286,-3.2837,-3.2804,-3.2777,-3.2737,-3.273,-3.2733,-3.2747,-3.2765,-3.2755,-3.2646,-3.2727,-3.2726,-3.2725,-3.2724,-3.2724,-3.3217,-3.3215,-3.3177,-3.3157,-3.3131,-3.3108,-3.3101,-3.3065,-3.3047,-3.3015,-3.2985,-3.2967,-3.2929,-3.2882,-3.2859,-3.2844,-3.2823,-3.2828,-3.2829,-3.2831,-3.2837,-3.277,-3.2838,-3.2838,-3.2837,-3.2837,-3.2837,0,-3.3295,-3.3268,-3.3251,-3.3215,-3.32,-3.3165,-3.3134,-3.3123,-3.3108,-3.3078,-3.3057,-3.3034,-3.3011,-3.2966,-3.294,-3.2937,-3.2918,-3.2932,-3.293,-3.2925,-3.2858,-3.2857,-3.2948,-3.2948,-3.2948,-3.2948,-3.2948,-3.2948,-3.3333,-3.3329,-3.3302,-3.3285,-3.3257,-3.324,-3.3226,-3.3204,-3.3179,-3.3156,-3.3137,-3.3109,-3.3072,-3.3043,-3.3021,-3.3009,-3.3001,-3.3021,-3.3002,-3.294,-3.2929,-3.2919,-3.2918,-3.302,-3.302,-3.307,-3.307,-3.3071]},{"header":{"parameterUnit":"m.s-1","parameterCategory":1,"la1":30.2991,"la2":30.254,"lo1":-89.0895,"lo2":-89.0444,"dy":0.0017,"dx":0.0017,"nx":28,"ny":28,"refTime":"2025-08-20T21:00:00:Z","depth":0,"parameterNumber":3,"parameterNumberName":"V-component_of_WINDS"},"data":[0,0,0,0,0,0,0,0,0,0,0,0,0,0,0,0,0,0,0,0,0,0,0,0,0,0,0,0,0,0,0,0,0,0,0,0,0,0,0,0,0,0,0,0,0,0,0,0,0,0,0,0,0,0,0,0,0,0,2.8895,2.8895,0,2.895,2.895,2.8951,2.9018,2.9019,2.902,2.9021,2.9072,2.9073,2.9073,0,0,0,0,0,0,0,0,0,0,0,0,0,2.8843,2.8843,2.8894,2.8895,2.8896,2.8949,2.895,2.8951,2.9018,2.9019,2.902,2.9021,2.9072,2.9073,2.9073,0,0,0,0,0,0,0,0,0,0,0,0,0,2.8878,2.8844,2.8894,2.8936,2.894,2.8949,2.895,2.8951,2.9017,2.9019,2.902,2.9022,2.9072,2.9073,2.9073,2.9045,0,0,2.9075,2.9075,0,0,0,0,0,0,0,0,2.8876,2.888,2.8929,2.8933,2.8938,2.8979,2.8951,2.8982,2.9017,2.8988,2.9021,2.9023,2.9039,2.9043,2.9049,2.9047,2.9049,2.9075,2.9075,2.9075,2.9076,0,0,0,0,0,0,0,2.8873,2.8878,2.8916,2.893,2.8935,2.895,2.8957,2.8957,2.9004,2.899,2.8995,2.9001,2.9042,2.9049,2.9051,2.905,2.9075,2.9075,2.9076,2.9076,2.9026,2.9025,0,0,0,0,0,0,2.8865,2.8875,2.8914,2.8918,2.891,2.895,2.8957,2.8964,2.9004,2.9012,2.9,2.9004,2.9047,2.905,2.9053,2.9022,2.9075,2.9076,2.9076,2.9028,2.9026,2.9024,0,0,0,0,0,0,2.8864,2.8868,2.8912,2.8898,2.8905,2.8949,2.8956,2.8964,2.8971,2.9011,2.9019,2.8998,2.9048,2.9052,2.9047,2.9025,2.9076,2.9077,2.903,2.9027,2.9025,2.8959,0,0,0,0,0,0,2.8862,2.8867,2.8858,2.8897,2.8905,2.8906,2.8954,2.8964,2.8972,2.8978,2.9012,2.9019,2.905,2.9045,2.9047,2.9026,2.9077,2.9032,2.9029,2.9026,2.8963,2.8955,2.8947,0,0,0,0,0,2.886,2.8836,2.8857,2.8861,2.8895,2.8904,2.8909,2.8946,2.897,2.896,2.8986,2.9018,2.9027,2.9044,2.9047,2.9026,2.9034,2.903,2.9026,2.8967,2.8956,2.8948,0,0,0,0,0,0,2.8791,2.8842,2.8866,2.8854,2.8875,2.8916,2.8904,2.8934,2.8946,2.8951,2.8996,2.9003,2.8991,2.9008,2.9026,2.9,2.9035,2.9031,2.8989,2.8979,2.8971,2.8967,2.9078,0,0,0,0,0,2.8775,2.878,2.8824,2.8809,2.8819,2.8859,2.8865,2.8892,2.8914,2.8923,2.8949,2.8967,2.8975,2.8978,2.8987,2.8967,2.8974,2.8954,2.8946,2.8939,2.8935,2.8924,2.8915,2.9012,2.9012,2.9012,0,0,2.8741,2.8769,2.877,2.8796,2.8815,2.8818,2.8866,2.8867,2.8869,2.8923,2.8919,2.8938,2.8962,2.8949,2.8944,2.8962,2.891,2.8934,2.8928,2.8928,2.8919,2.891,2.8902,2.9009,2.901,2.901,0,0,2.868,2.8703,2.8693,2.8711,2.874,2.8768,2.8765,2.8802,2.8817,2.8815,2.8855,2.8857,2.8869,2.8884,2.8893,2.8839,2.8868,2.884,2.8797,2.8787,2.8779,2.8772,2.8752,2.8744,2.8837,2.8836,2.8836,0,2.8633,2.8641,2.8684,2.8682,2.8692,2.8743,2.8732,2.8748,2.8777,2.8782,2.8803,2.8818,2.8838,2.8829,2.8815,2.8822,2.8819,2.8836,2.8777,2.8771,2.8765,2.8746,2.8738,2.8833,2.8833,2.8834,2.8834,0,2.8581,2.8585,2.8574,2.8603,2.8611,2.8605,2.8646,2.8649,2.8676,2.8701,2.8697,2.8723,2.8738,2.8738,2.8763,2.8731,2.8742,2.8769,2.8805,2.8752,2.8734,2.8727,2.8828,2.8829,2.883,2.8831,0,0,2.8477,2.8531,2.8525,2.8539,2.8575,2.8578,2.8574,2.859,2.8591,2.861,2.8606,2.8616,2.8641,2.8652,2.868,2.867,2.8624,2.8699,2.87,2.8683,2.8589,2.8567,2.8558,2.8644,2.8643,2.8642,2.8587,0,2.8421,2.8418,2.8457,2.8443,2.8447,2.8495,2.8492,2.8512,2.8535,2.8541,2.8566,2.8571,2.8606,2.8612,2.8606,2.8631,2.8605,2.8636,2.8639,2.8639,2.863,2.8549,2.8526,2.8472,2.858,2.8579,2.8578,0,2.8355,2.8372,2.8359,2.8395,2.8398,2.8394,2.8412,2.8417,2.8441,2.8459,2.8471,2.8503,2.85,2.8535,2.8531,2.855,2.8554,2.8567,2.8566,2.8566,2.8604,2.8546,2.8456,2.8448,2.8568,2.8569,2.857,0,2.8279,2.8298,2.8293,2.8303,2.8346,2.8341,2.8359,2.8385,2.8392,2.8407,2.8412,2.8426,2.8433,2.8442,2.8477,2.8499,2.8467,2.8506,2.848,2.8479,2.847,2.847,2.8378,2.8475,2.8475,2.8475,2.8475,0,2.8212,2.8201,2.8259,2.8255,2.8244,2.8289,2.8277,2.8298,2.8321,2.8321,2.8364,2.8363,2.841,2.8414,2.8441,2.8432,2.8435,2.8448,2.8455,2.8443,2.8441,2.8445,2.8449,2.8473,2.8473,2.8474,2.8474,0,2.8124,2.8162,2.8159,2.8201,2.8211,2.8201,2.8235,2.8233,2.826,2.8259,2.8262,2.8302,2.8309,2.8345,2.836,2.8378,2.8359,2.8374,2.8351,2.8356,2.8328,2.8329,2.8234,2.8223,2.8328,2.8327,2.8326,0,2.8078,2.8071,2.8112,2.8116,2.8132,2.8138,2.8146,2.819,2.8196,2.8223,2.8217,2.8227,2.8238,2.8246,2.8276,2.8287,2.8302,2.8268,2.8304,2.8292,2.83,2.8299,2.8298,2.8259,2.8258,2.8257,2.8256,0,2.7991,2.8011,2.8022,2.8039,2.8048,2.8063,2.8081,2.8081,2.8129,2.8134,2.8142,2.815,2.8166,2.8175,2.8192,2.8208,2.8239,2.8245,2.8239,2.8227,2.8213,2.8219,2.8329,2.8246,2.8247,2.8248,2.8249,2.8249,2.7922,2.7918,2.7947,2.7957,2.7976,2.7991,2.7991,2.8018,2.8026,2.8043,2.8068,2.8073,2.8097,2.8122,2.8136,2.8139,2.8157,2.815,2.8147,2.8144,2.8138,2.8214,2.8143,2.8143,2.8143,2.8143,2.8144,0,2.7837,2.7858,2.7867,2.7892,2.7899,2.7931,2.7952,2.7956,2.796,2.798,2.799,2.7999,2.8009,2.804,2.8052,2.8048,2.8063,2.805,2.805,2.8053,2.8122,2.8125,2.8038,2.8038,2.8038,2.8038,2.8038,2.8038,2.7793,2.7788,2.7811,2.7815,2.7836,2.7843,2.7852,2.7866,2.7883,2.7891,2.79,2.7921,2.7945,2.796,2.7969,2.7978,2.798,2.7962,2.7975,2.8038,2.8048,2.8058,2.8061,2.7962,2.7962,2.7906,2.7905,2.7905]}]]